• In Portugal
  • List of Countries
  • For 7 days
  • Water Temperature
  • Satellite Maps
  • Weather Map
  • Weather Widgets
  • user-avatar
    Login

    Hourly Weather Sylhet

    Today, 24 January, Wednesday

    Time Temperature Precipitation Wind Pressure Humidity
    00:00 +19°C° 0 mm 1 mps 757 mmHg 66%
    01:00 +19°C° 0 mm 1 mps 757 mmHg 68%
    02:00 +18°C° 0 mm 1 mps 757 mmHg 70%
    03:00 +18°C° 0 mm 1 mps 757 mmHg 72%
    04:00 +18°C° 0 mm 1 mps 757 mmHg 73%
    05:00 +16°C° 0 mm 1 mps 757 mmHg 75%
    06:00 +16°C° 0 mm 1 mps 757 mmHg 76%
    07:00 +19°C° 0 mm 1 mps 757 mmHg 71%
    08:00 +20°C° 0 mm 1 mps 757 mmHg 65%
    09:00 +22°C° 0 mm 1 mps 757 mmHg 59%
    10:00 +24°C° 0 mm 1 mps 757 mmHg 54%
    11:00 +26°C° 0 mm 1 mps 757 mmHg 48%
    12:00 +28°C° 0 mm 1 mps 756 mmHg 43%
    13:00 +28°C° 0 mm 1 mps 756 mmHg 40%
    14:00 +29°C° 0 mm 1 mps 755 mmHg 38%
    15:00 +29°C° 0 mm 2 mps 754 mmHg 35%
    16:00 +27°C° 0 mm 2 mps 754 mmHg 39%
    17:00 +25°C° 0 mm 1 mps 754 mmHg 43%
    18:00 +23°C° 0 mm 1 mps 754 mmHg 46%
    19:00 +23°C° 0 mm 1 mps 755 mmHg 48%
    20:00 +22°C° 0 mm 1 mps 755 mmHg 49%
    21:00 +21°C° 0 mm 1 mps 756 mmHg 50%
    22:00 +20°C° 0 mm 1 mps 756 mmHg 51%
    23:00 +20°C° 0 mm 1 mps 756 mmHg 53%

    Tomorrow, 25 January, Thursday

    Time Temperature Precipitation Wind Pressure Humidity
    00:00 +19°C° 0 mm 1 mps 756 mmHg 54%
    01:00 +19°C° 0 mm 1 mps 756 mmHg 57%
    02:00 +18°C° 0 mm 1 mps 756 mmHg 60%
    03:00 +17°C° 0 mm 2 mps 756 mmHg 63%
    04:00 +16°C° 0 mm 2 mps 756 mmHg 65%
    05:00 +16°C° 0 mm 1 mps 756 mmHg 68%
    06:00 +15°C° 0 mm 1 mps 756 mmHg 70%
    07:00 +18°C° 0 mm 1 mps 757 mmHg 65%
    08:00 +19°C° 0 mm 2 mps 757 mmHg 60%
    09:00 +21°C° 0 mm 2 mps 758 mmHg 55%
    10:00 +24°C° 0 mm 2 mps 757 mmHg 49%
    11:00 +26°C° 0 mm 2 mps 757 mmHg 43%
    12:00 +28°C° 0 mm 2 mps 757 mmHg 36%
    13:00 +28°C° 0 mm 1 mps 756 mmHg 34%
    14:00 +29°C° 0 mm 1 mps 755 mmHg 32%
    15:00 +29°C° 0 mm 1 mps 755 mmHg 30%
    16:00 +27°C° 0 mm 1 mps 755 mmHg 34%
    17:00 +25°C° 0 mm 1 mps 755 mmHg 39%
    18:00 +21°C° 0 mm 0 mps 755 mmHg 43%
    19:00 +23°C° 0 mm 1 mps 756 mmHg 45%
    20:00 +22°C° 0 mm 1 mps 756 mmHg 46%
    21:00 +21°C° 0 mm 1 mps 757 mmHg 48%
    22:00 +20°C° 0 mm 1 mps 757 mmHg 50%
    23:00 +20°C° 0 mm 1 mps 757 mmHg 52%

    Day after tomorrow, 26 January, Friday

    Time Temperature Precipitation Wind Pressure Humidity
    00:00 +19°C° 0 mm 1 mps 757 mmHg 54%
    01:00 +19°C° 0 mm 1 mps 757 mmHg 55%
    02:00 +18°C° 0 mm 1 mps 757 mmHg 56%
    03:00 +18°C° 0 mm 1 mps 757 mmHg 58%
    04:00 +16°C° 0 mm 1 mps 757 mmHg 59%
    05:00 +16°C° 0 mm 1 mps 757 mmHg 61%
    06:00 +16°C° 0 mm 1 mps 757 mmHg 62%
    07:00 +18°C° 0 mm 1 mps 758 mmHg 58%
    08:00 +20°C° 0 mm 1 mps 758 mmHg 54%
    09:00 +22°C° 0 mm 1 mps 759 mmHg 50%
    10:00 +24°C° 0 mm 1 mps 758 mmHg 45%
    11:00 +26°C° 0 mm 1 mps 758 mmHg 40%
    12:00 +28°C° 0 mm 1 mps 757 mmHg 35%
    13:00 +28°C° 0 mm 1 mps 757 mmHg 33%
    14:00 +28°C° 0 mm 2 mps 756 mmHg 31%
    15:00 +28°C° 0 mm 2 mps 755 mmHg 29%
    16:00 +26°C° 0 mm 2 mps 755 mmHg 33%
    17:00 +24°C° 0 mm 1 mps 755 mmHg 38%
    18:00 +22°C° 0 mm 1 mps 755 mmHg 42%
    19:00 +21°C° 0 mm 1 mps 756 mmHg 44%
    20:00 +21°C° 0 mm 1 mps 757 mmHg 46%
    21:00 +20°C° 0 mm 1 mps 757 mmHg 47%
    22:00 +19°C° 0 mm 1 mps 757 mmHg 49%
    23:00 +19°C° 0 mm 1 mps 757 mmHg 51%

    27 January, Saturday

    Time Temperature Precipitation Wind Pressure Humidity
    00:00 +18°C° 0 mm 1 mps 757 mmHg 53%
    01:00 +16°C° 0 mm 1 mps 757 mmHg 55%
    02:00 +16°C° 0 mm 1 mps 757 mmHg 57%
    03:00 +15°C° 0 mm 1 mps 756 mmHg 59%
    04:00 +15°C° 0 mm 1 mps 757 mmHg 61%
    05:00 +15°C° 0 mm 1 mps 757 mmHg 63%
    06:00 +14°C° 0 mm 1 mps 757 mmHg 65%
    07:00 +16°C° 0 mm 1 mps 758 mmHg 61%
    08:00 +19°C° 0 mm 1 mps 758 mmHg 57%
    09:00 +21°C° 0 mm 1 mps 759 mmHg 52%
    10:00 +23°C° 0 mm 1 mps 758 mmHg 46%
    11:00 +25°C° 0 mm 1 mps 758 mmHg 40%
    12:00 +27°C° 0 mm 1 mps 758 mmHg 34%
    13:00 +27°C° 0 mm 1 mps 757 mmHg 32%
    14:00 +27°C° 0 mm 2 mps 756 mmHg 30%
    15:00 +27°C° 0 mm 2 mps 755 mmHg 28%
    16:00 +25°C° 0 mm 2 mps 755 mmHg 32%
    17:00 +23°C° 0 mm 1 mps 756 mmHg 36%
    18:00 +21°C° 0 mm 1 mps 756 mmHg 40%
    19:00 +21°C° 0 mm 1 mps 756 mmHg 42%
    20:00 +20°C° 0 mm 1 mps 757 mmHg 43%
    21:00 +19°C° 0 mm 1 mps 758 mmHg 45%
    22:00 +18°C° 0 mm 1 mps 758 mmHg 47%
    23:00 +18°C° 0 mm 1 mps 758 mmHg 48%

    28 January, Sunday

    Time Temperature Precipitation Wind Pressure Humidity
    00:00 +16°C° 0 mm 1 mps 758 mmHg 50%
    01:00 +16°C° 0 mm 1 mps 758 mmHg 52%
    02:00 +15°C° 0 mm 1 mps 758 mmHg 54%
    03:00 +14°C° 0 mm 1 mps 757 mmHg 56%
    04:00 +14°C° 0 mm 1 mps 758 mmHg 58%
    05:00 +14°C° 0 mm 1 mps 758 mmHg 60%
    06:00 +13°C° 0 mm 1 mps 758 mmHg 61%
    07:00 +15°C° 0 mm 1 mps 759 mmHg 57%
    08:00 +18°C° 0 mm 1 mps 759 mmHg 53%
    09:00 +20°C° 0 mm 1 mps 760 mmHg 49%
    10:00 +22°C° 0 mm 1 mps 760 mmHg 43%
    11:00 +24°C° 0 mm 1 mps 759 mmHg 38%
    12:00 +26°C° 0 mm 1 mps 759 mmHg 32%
    13:00 +26°C° 0 mm 1 mps 758 mmHg 30%
    14:00 +26°C° 0 mm 1 mps 757 mmHg 28%
    15:00 +26°C° 0 mm 2 mps 757 mmHg 26%
    16:00 +24°C° 0 mm 2 mps 757 mmHg 30%
    17:00 +22°C° 0 mm 1 mps 757 mmHg 34%
    18:00 +21°C° 0 mm 1 mps 758 mmHg 38%
    19:00 +20°C° 0 mm 1 mps 758 mmHg 40%
    20:00 +19°C° 0 mm 1 mps 759 mmHg 42%
    21:00 +18°C° 0 mm 1 mps 759 mmHg 44%
    22:00 +16°C° 0 mm 1 mps 759 mmHg 46%
    23:00 +16°C° 0 mm 1 mps 759 mmHg 47%

    29 January, Monday

    Time Temperature Precipitation Wind Pressure Humidity
    00:00 +15°C° 0 mm 1 mps 759 mmHg 49%
    01:00 +15°C° 0 mm 1 mps 759 mmHg 51%
    02:00 +14°C° 0 mm 1 mps 759 mmHg 53%
    03:00 +14°C° 0 mm 1 mps 758 mmHg 55%
    04:00 +13°C° 0 mm 1 mps 759 mmHg 57%
    05:00 +13°C° 0 mm 1 mps 759 mmHg 59%
    06:00 +12°C° 0 mm 1 mps 759 mmHg 61%
    07:00 +14°C° 0 mm 1 mps 760 mmHg 57%
    08:00 +16°C° 0 mm 1 mps 760 mmHg 52%
    09:00 +19°C° 0 mm 1 mps 761 mmHg 48%
    10:00 +21°C° 0 mm 1 mps 760 mmHg 43%
    11:00 +23°C° 0 mm 1 mps 760 mmHg 38%
    12:00 +26°C° 0 mm 1 mps 760 mmHg 33%
    13:00 +26°C° 0 mm 1 mps 759 mmHg 31%
    14:00 +26°C° 0 mm 2 mps 758 mmHg 30%
    15:00 +26°C° 0 mm 2 mps 758 mmHg 28%
    16:00 +24°C° 0 mm 2 mps 758 mmHg 33%
    17:00 +22°C° 0 mm 1 mps 758 mmHg 37%
    18:00 +20°C° 0 mm 1 mps 759 mmHg 41%
    19:00 +19°C° 0 mm 1 mps 759 mmHg 43%
    20:00 +19°C° 0 mm 1 mps 759 mmHg 45%
    21:00 +18°C° 0 mm 1 mps 760 mmHg 48%
    22:00 +16°C° 0 mm 1 mps 760 mmHg 49%
    23:00 +16°C° 0 mm 1 mps 759 mmHg 51%
    Show more